Barksdale AFB, LA

3:45 AM CDT on April 24, 2017 (GMT -0500)
Barksdale Air Force Base

Weather History for KBAD - December, 2013

Change the Weather History Date:

Friday, December 20, 2013

  Actual Average Record
Temperature  
Mean Temperature 68 °F -  
Max Temperature 72 °F 54 °F 76 °F (2008)
Min Temperature 64 °F 34 °F 14 °F (1996)
Cooling Degree Days 3    
Growing Degree Days 18 (Base 50)    
Moisture  
Dew Point 65 °F    
Average Humidity 90    
Maximum Humidity 100    
Minimum Humidity 77    
Precipitation  
Precipitation 0.00 in - - ()
Sea Level Pressure  
Sea Level Pressure 29.85 in    
Wind  
Wind Speed 11 mph (SSE)    
Max Wind Speed 17 mph    
Max Gust Speed -    
Visibility 10 miles    
Events Rain    
Averages and records for this station are not official NWS values.
T = Trace of Precipitation, MM = Missing Value Source: NWS Daily Summary

Daily Weather History Graph

Daily Weather History Graph

Search for Another Location

Airport or City:

Trip Planner

Search our weather history database for the weather conditions in past years. The results will help you decide how hot, cold, wet, or windy it might be!

Date:

Astronomy

Dec. 20, 2013 Rise Set
Actual Time 7:11 AM CST 5:12 PM CST
Civil Twilight 6:44 AM CST 5:40 PM CST
Nautical Twilight 6:14 AM CST 6:10 PM CST
Astronomical Twilight 5:44 AM CST 6:40 PM CST
Moon 8:24 PM CST (12/20) 9:14 AM CST (12/20)
Length of Visible Light 10h 55m
Length of Day
10h 00m
Waning Gibbous, 90% of the Moon is Illuminated
Dec 20
Waning Gibbous
Dec 25
Last Quarter
Jan 1
New
Jan 7
First Quarter
Jan 15
Full

Hourly Weather History & Observations

Time (CST) Temp. Dew Point Humidity Pressure Visibility Wind Dir Wind Speed Gust Speed Precip Events Conditions
12:58 AM 64.9 °F 61.2 °F 88% 29.88 in 10.0 mi SSE 15.0 mph - N/A   Mostly Cloudy
1:58 AM 66.0 °F 61.9 °F 86% 29.89 in 10.0 mi South 11.5 mph - N/A   Overcast
2:58 AM 66.2 °F 62.2 °F 87% 29.89 in 10.0 mi South 11.5 mph - N/A   Mostly Cloudy
3:38 AM 64.4 °F 62.6 °F 94% 29.87 in 10.0 mi SSE 10.4 mph - N/A   Partly Cloudy
3:58 AM 64.0 °F 62.4 °F 94% 29.88 in 10.0 mi South 10.4 mph - N/A   Scattered Clouds
4:28 AM 64.4 °F 62.6 °F 94% 29.87 in 10.0 mi South 9.2 mph - N/A   Mostly Cloudy
4:38 AM 64.4 °F 62.6 °F 94% 29.88 in 10.0 mi South 8.1 mph - N/A   Mostly Cloudy
4:58 AM 64.4 °F 63.1 °F 96% 29.88 in 10.0 mi SSE 10.4 mph - N/A   Mostly Cloudy
5:38 AM 64.4 °F 64.4 °F 100% 29.86 in 10.0 mi SSE 10.4 mph - N/A   Mostly Cloudy
5:58 AM 65.5 °F 64.0 °F 95% 29.87 in 10.0 mi SSE 13.8 mph - N/A   Overcast
6:55 AM 66.2 °F 64.4 °F 94% 29.88 in 10.0 mi South 12.7 mph - N/A   Overcast
7:42 AM 66.2 °F 64.4 °F 94% 29.88 in 10.0 mi South 10.4 mph - N/A   Mostly Cloudy
7:52 AM 66.2 °F 64.4 °F 94% 29.88 in 10.0 mi South 11.5 mph - N/A   Mostly Cloudy
7:58 AM 66.0 °F 65.1 °F 97% 29.90 in 10.0 mi South 11.5 mph - N/A   Mostly Cloudy
8:08 AM 66.2 °F 64.4 °F 94% 29.89 in 10.0 mi South 10.4 mph - N/A   Mostly Cloudy
8:48 AM 68.0 °F 64.4 °F 88% 29.90 in 10.0 mi South 10.4 mph - N/A   Overcast
8:58 AM 67.8 °F 65.1 °F 91% 29.91 in 10.0 mi South 11.5 mph - N/A   Overcast
9:18 AM 68.0 °F 64.4 °F 88% 29.91 in 10.0 mi South 11.5 mph - N/A   Overcast
9:58 AM 70.7 °F 64.6 °F 81% 29.93 in 10.0 mi South 10.4 mph - N/A   Overcast
10:58 AM 70.9 °F 64.2 °F 79% 29.93 in 10.0 mi SSE 5.8 mph - N/A   Overcast
11:38 AM 71.6 °F 64.4 °F 78% 29.91 in 10.0 mi SSE 6.9 mph - N/A   Mostly Cloudy
11:58 AM 71.1 °F 64.9 °F 81% 29.90 in 10.0 mi SSE 9.2 mph - N/A   Mostly Cloudy
12:14 PM 69.8 °F 66.2 °F 88% 29.89 in 10.0 mi SSE 8.1 mph - N/A Rain Light Rain
12:24 PM 69.8 °F 66.2 °F 88% 29.88 in 10.0 mi SSE 8.1 mph - N/A   Partly Cloudy
12:58 PM 71.8 °F 66.6 °F 84% 29.87 in 10.0 mi South 8.1 mph - 0.00 in   Scattered Clouds
1:58 PM 72.3 °F 65.5 °F 79% 29.85 in 10.0 mi SSE 9.2 mph - N/A   Mostly Cloudy
2:58 PM 72.9 °F 65.3 °F 77% 29.84 in 10.0 mi SSE 10.4 mph - N/A   Mostly Cloudy
3:58 PM 72.3 °F 65.5 °F 79% 29.83 in 10.0 mi SSE 6.9 mph - N/A   Mostly Cloudy
4:58 PM 71.6 °F 65.5 °F 81% 29.83 in 10.0 mi SSE 10.4 mph - N/A   Mostly Cloudy
5:58 PM 70.0 °F 66.0 °F 87% 29.83 in 10.0 mi SSE 10.4 mph - N/A   Scattered Clouds
6:58 PM 71.1 °F 66.4 °F 85% 29.82 in 10.0 mi South 15.0 mph - N/A   Mostly Cloudy
7:48 PM 69.8 °F 66.2 °F 88% 29.81 in 10.0 mi SSE 11.5 mph - N/A   Mostly Cloudy
7:58 PM 70.7 °F 66.7 °F 87% 29.81 in 10.0 mi SSE 11.5 mph - N/A   Mostly Cloudy
8:48 PM 69.8 °F 66.2 °F 88% 29.79 in 10.0 mi SSE 13.8 mph - N/A   Overcast
8:58 PM 70.2 °F 67.1 °F 90% 29.80 in 10.0 mi SSE 13.8 mph - N/A   Overcast
9:18 PM 69.8 °F 68.0 °F 94% 29.78 in 10.0 mi SSE 15.0 mph - N/A   Overcast
9:28 PM 69.8 °F 68.0 °F 94% 29.78 in 10.0 mi SSE 13.8 mph - N/A   Overcast
9:58 PM 70.2 °F 67.5 °F 91% 29.79 in 10.0 mi SSE 12.7 mph - N/A   Mostly Cloudy
10:21 PM 69.8 °F 68.0 °F 94% 29.78 in 9.0 mi SSE 12.7 mph - N/A Rain Light Rain
10:31 PM 69.8 °F 68.0 °F 94% 29.78 in 9.0 mi SSE 11.5 mph - N/A   Mostly Cloudy
10:58 PM 69.1 °F 68.4 °F 98% 29.78 in 9.0 mi SSE 9.2 mph - 0.00 in   Mostly Cloudy
11:38 PM 69.8 °F 69.8 °F 100% 29.76 in 10.0 mi South 12.7 mph - N/A   Mostly Cloudy
11:58 PM 70.2 °F 68.9 °F 96% 29.76 in 10.0 mi South 17.3 mph - N/A   Mostly Cloudy